KC4KQE Weather Reports


Display with metric or nautical units.
time (UTC)temp
F
wind
direction
speed
MPH
gust
MPH
rain 1hr
in
rain 24hr
in
rain mn
in
humidity
%
barometer
mb
20190616064441 80 233 1.0 2.0 0.00 0.00 0.00 19 1008.8
20190616063941 80 233 1.0 2.0 0.00 0.00 0.00 19 1008.8
20190616063441 80 233 0.0 1.0 0.00 0.00 0.00 19 1008.8
20190616062941 81 227 1.0 2.0 0.00 0.00 0.00 19 1008.8
20190616062441 81 225 0.0 1.0 0.00 0.00 0.00 19 1008.8
20190616061941 81 225 0.0 2.0 0.00 0.00 0.00 19 1008.8
20190616061441 81 225 1.0 2.0 0.00 0.00 0.00 18 1008.8
20190616060941 81 225 1.0 2.0 0.00 0.00 0.00 18 1008.9
20190616060441 81 225 1.0 2.0 0.00 0.00 0.00 18 1008.9
20190616055941 81 225 1.0 2.0 0.00 0.00 0.00 18 1008.9
20190616055441 82 225 1.0 1.0 0.00 0.00 0.00 18 1009.0
20190616054941 82 225 0.0 2.0 0.00 0.00 0.00 18 1008.9
20190616054441 82 225 1.0 2.0 0.00 0.00 0.00 18 1008.9
20190616053941 82 225 2.0 2.0 0.00 0.00 0.00 18 1008.9
20190616053441 82 225 0.0 2.0 0.00 0.00 0.00 18 1009.0
20190616052941 82 225 1.0 2.0 0.00 0.00 0.00 17 1009.0
20190616052441 83 225 0.0 2.0 0.00 0.00 0.00 17 1009.0
20190616051941 83 225 1.0 2.0 0.00 0.00 0.00 17 1009.1
20190616051441 83 225 1.0 2.0 0.00 0.00 0.00 17 1009.1
20190616050941 83 225 0.0 1.0 0.00 0.00 0.00 17 1009.1
20190616050441 83 225 0.0 2.0 0.00 0.00 0.00 17 1009.1
20190616045944 84 225 0.0 1.0 0.00 0.00 0.00 16 1009.1
20190616045441 84 225 0.0 2.0 0.00 0.00 0.00 16 1009.1
20190616044941 84 225 1.0 2.0 0.00 0.00 0.00 16 1009.1
20190616044441 84 225 1.0 2.0 0.00 0.00 0.00 16 1009.1
20190616043941 85 225 2.0 2.0 0.00 0.00 0.00 16 1009.0
20190616043441 85 225 1.0 2.0 0.00 0.00 0.00 16 1009.0
20190616042944 85 225 2.0 2.0 0.00 0.00 0.00 15 1009.0
20190616042441 85 225 1.0 3.0 0.00 0.00 0.00 15 1008.9
20190616041941 86 225 1.0 2.0 0.00 0.00 0.00 15 1008.8
20190616041441 86 225 2.0 2.0 0.00 0.00 0.00 15 1008.7
20190616040940 86 225 2.0 2.0 0.00 0.00 0.00 14 1008.7
20190616040440 87 225 2.0 2.0 0.00 0.00 0.00 14 1008.7
20190616035941 87 225 2.0 2.0 0.00 0.00 0.00 14 1008.6
20190616035441 88 225 1.0 1.0 0.00 0.00 0.00 14 1008.5
20190616034941 88 225 0.0 0.0 0.00 0.00 0.00 14 1008.5
20190616034441 89 225 0.0 0.0 0.00 0.00 0.00 14 1008.5
20190616033941 89 225 0.0 0.0 0.00 0.00 0.00 14 1008.5
20190616033444 90 225 0.0 2.0 0.00 0.00 0.00 14 1008.4
20190616032941 90 225 0.0 0.0 0.00 0.00 0.00 14 1008.4
20190616032441 91 225 0.0 0.0 0.00 0.00 0.00 13 1008.4
20190616031941 91 225 0.0 0.0 0.00 0.00 0.00 13 1008.3
20190616031441 92 225 0.0 1.0 0.00 0.00 0.00 13 1008.3
20190616030941 93 225 0.0 0.0 0.00 0.00 0.00 13 1008.3
20190616030441 93 225 0.0 0.0 0.00 0.00 0.00 12 1008.2
20190616025941 94 225 0.0 0.0 0.00 0.00 0.00 12 1008.2
20190616025444 95 225 0.0 0.0 0.00 0.00 0.00 11 1008.2
20190616024941 95 225 0.0 0.0 0.00 0.00 0.00 11 1008.2
20190616024441 96 225 0.0 0.0 0.00 0.00 0.00 11 1008.2
20190616023941 96 225 0.0 0.0 0.00 0.00 0.00 11 1008.1
20190616023441 97 225 0.0 0.0 0.00 0.00 0.00 10 1008.1
20190616022941 97 225 0.0 1.0 0.00 0.00 0.00 10 1008.1
20190616022441 97 225 0.0 2.0 0.00 0.00 0.00 10 1008.1
20190616021941 97 224 1.0 4.0 0.00 0.00 0.00 10 1008.1
20190616021441 98 238 1.0 4.0 0.00 0.00 0.00 10 1008.0
20190616020941 98 248 0.0 4.0 0.00 0.00 0.00 9 1007.9
20190616020441 98 241 4.0 7.0 0.00 0.00 0.00 9 1008.0
20190616015941 98 270 4.0 8.0 0.00 0.00 0.00 9 1007.9
20190616015441 99 245 6.0 7.0 0.00 0.00 0.00 9 1007.9
20190616014941 99 229 4.0 8.0 0.00 0.00 0.00 9 1007.7
20190616014441 99 234 2.0 6.0 0.00 0.00 0.00 9 1007.7
20190616013941 99 258 1.0 4.0 0.00 0.00 0.00 9 1007.7
20190616013441 99 227 4.0 8.0 0.00 0.00 0.00 8 1007.6
20190616012940 100 253 2.0 7.0 0.00 0.00 0.00 8 1007.6
20190616012444 100 227 4.0 6.0 0.00 0.00 0.00 8 1007.6
20190616011940 100 229 3.0 7.0 0.00 0.00 0.00 9 1007.6
20190616011440 100 0 6.0 7.0 0.00 0.00 0.00 9 1007.5
20190616010944 100 244 6.0 7.0 0.00 0.00 0.00 8 1007.6
20190616010444 100 264 2.0 7.0 0.00 0.00 0.00 8 1007.6
20190616005941 101 227 1.0 4.0 0.00 0.00 0.00 8 1007.5
20190616005441 101 219 4.0 7.0 0.00 0.00 0.00 8 1007.6
20190616004940 101 205 5.0 9.0 0.00 0.00 0.00 8 1007.6
20190616004441 101 277 0.0 7.0 0.00 0.00 0.00 8 1007.5
20190616003941 101 257 5.0 7.0 0.00 0.00 0.00 8 1007.7
20190616003440 101 240 2.0 8.0 0.00 0.00 0.00 8 1007.7
20190616002941 101 194 4.0 6.0 0.00 0.00 0.00 8 1007.7
20190616002441 101 255 2.0 10.0 0.00 0.00 0.00 8 1007.7
20190616001940 102 255 9.0 11.0 0.00 0.00 0.00 8 1007.7
20190616001440 102 278 2.0 7.0 0.00 0.00 0.00 8 1007.8
20190616000941 102 254 4.0 6.0 0.00 0.00 0.00 8 1007.9
20190616000441 101 250 0.0 5.0 0.00 0.00 0.00 8 1007.9
20190615235941 102 279 2.0 8.0 0.00 0.00 0.00 8 1008.0
20190615235440 102 263 5.0 14.0 0.00 0.00 0.00 8 1008.0
20190615234940 103 220 3.0 5.0 0.00 0.00 0.00 8 1008.0
20190615234440 103 253 4.0 7.0 0.00 0.00 0.00 8 1008.1
20190615233940 103 201 6.0 6.0 0.00 0.00 0.00 8 1008.2
20190615233440 103 232 0.0 8.0 0.00 0.00 0.00 8 1008.3
20190615232941 103 0 5.0 9.0 0.00 0.00 0.00 8 1008.3
20190615232440 103 215 5.0 10.0 0.00 0.00 0.00 8 1008.3
20190615231941 103 232 8.0 8.0 0.00 0.00 0.00 8 1008.3
20190615231441 102 186 8.0 8.0 0.00 0.00 0.00 8 1008.4
20190615230941 102 236 1.0 7.0 0.00 0.00 0.00 8 1008.4
20190615230441 102 195 2.0 4.0 0.00 0.00 0.00 8 1008.5
20190615225941 103 235 1.0 9.0 0.00 0.00 0.00 8 1008.6
20190615225441 103 219 5.0 8.0 0.00 0.00 0.00 8 1008.6
20190615224942 102 223 1.0 9.0 0.00 0.00 0.00 8 1008.6
20190615224440 102 185 4.0 12.0 0.00 0.00 0.00 9 1008.7
20190615223941 102 63 1.0 7.0 0.00 0.00 0.00 9 1008.8
20190615223441 102 288 6.0 10.0 0.00 0.00 0.00 9 1008.9
20190615222940 102 227 4.0 11.0 0.00 0.00 0.00 9 1008.9
20190615222444 102 0 9.0 9.0 0.00 0.00 0.00 9 1009.0
20190615221941 101 0 3.0 10.0 0.00 0.00 0.00 9 1009.1
20190615221440 100 196 8.0 10.0 0.00 0.00 0.00 9 1009.1
20190615220941 100 234 4.0 8.0 0.00 0.00 0.00 9 1009.2
20190615220441 100 279 7.0 8.0 0.00 0.00 0.00 9 1009.3
20190615215941 100 293 3.0 9.0 0.00 0.00 0.00 9 1009.3
20190615215440 100 311 2.0 9.0 0.00 0.00 0.00 10 1009.4
20190615214940 100 232 6.0 9.0 0.00 0.00 0.00 9 1009.4
20190615214440 101 279 6.0 10.0 0.00 0.00 0.00 9 1009.4
20190615213941 102 0 9.0 13.0 0.00 0.00 0.00 9 1009.5
20190615213440 102 213 4.0 9.0 0.00 0.00 0.00 10 1009.6
20190615212941 102 163 3.0 7.0 0.00 0.00 0.00 10 1009.6
20190615212443 101 231 3.0 11.0 0.00 0.00 0.00 10 1009.6
20190615211941 102 244 2.0 13.0 0.00 0.00 0.00 9 1009.7
20190615211441 101 196 3.0 7.0 0.00 0.00 0.00 10 1009.7
20190615210940 101 189 5.0 12.0 0.00 0.00 0.00 10 1009.8
20190615210440 101 250 4.0 9.0 0.00 0.00 0.00 10 1009.8
20190615205941 102 202 2.0 9.0 0.00 0.00 0.00 9 1009.9
20190615205441 102 242 3.0 7.0 0.00 0.00 0.00 9 1010.0
20190615204941 101 172 2.0 7.0 0.00 0.00 0.00 9 1010.0
20190615204441 101 189 6.0 10.0 0.00 0.00 0.00 8 1010.1
20190615203941 101 186 3.0 10.0 0.00 0.00 0.00 9 1010.2
20190615203440 100 229 3.0 10.0 0.00 0.00 0.00 10 1010.2
20190615202940 99 228 6.0 7.0 0.00 0.00 0.00 11 1010.3
20190615202440 99 210 1.0 8.0 0.00 0.00 0.00 10 1010.3
20190615201941 98 216 6.0 13.0 0.00 0.00 0.00 11 1010.3
20190615201443 98 248 10.0 11.0 0.00 0.00 0.00 11 1010.4
20190615200940 98 214 8.0 12.0 0.00 0.00 0.00 12 1010.5
20190615200441 98 270 8.0 11.0 0.00 0.00 0.00 12 1010.6
20190615195940 98 254 5.0 8.0 0.00 0.00 0.00 12 1010.6
20190615195440 98 310 7.0 10.0 0.00 0.00 0.00 12 1010.7
20190615194944 99 244 2.0 11.0 0.00 0.00 0.00 11 1010.7
20190615194440 100 257 8.0 10.0 0.00 0.00 0.00 12 1010.8
20190615193940 99 273 0.0 7.0 0.00 0.00 0.00 12 1010.9
20190615193440 99 184 2.0 9.0 0.00 0.00 0.00 11 1011.0
20190615192940 99 183 3.0 4.0 0.00 0.00 0.00 12 1011.0
20190615192440 98 217 3.0 7.0 0.00 0.00 0.00 12 1011.1
20190615191940 98 200 4.0 9.0 0.00 0.00 0.00 12 1011.1
20190615191440 98 142 1.0 7.0 0.00 0.00 0.00 12 1011.1
20190615190940 97 201 6.0 7.0 0.00 0.00 0.00 12 1011.2
20190615190443 97 254 4.0 10.0 0.00 0.00 0.00 12 1011.3
20190615185940 97 238 7.0 11.0 0.00 0.00 0.00 12 1011.3
20190615185441 97 19 2.0 5.0 0.00 0.00 0.00 12 1011.4
20190615184940 98 259 4.0 5.0 0.00 0.00 0.00 12 1011.4
20190615184441 97 175 5.0 0.0 0.00 0.00 0.00 12 1011.5
20190615183940 98 175 5.0 0.0 0.00 0.00 0.00 11 1011.6
20190615183440 98 175 5.0 0.0 0.00 0.00 0.00 11 1011.6
20190615182940 97 175 5.0 0.0 0.00 0.00 0.00 11 1011.5
20190615182440 97 175 5.0 0.0 0.00 0.00 0.00 11 1011.6
20190615181940 97 175 5.0 0.0 0.00 0.00 0.00 11 1011.7
20190615181443 97 175 5.0 0.0 0.00 0.00 0.00 11 1011.7
20190615180941 97 175 5.0 0.0 0.00 0.00 0.00 11 1011.7
20190615180441 97 175 5.0 0.0 0.00 0.00 0.00 11 1011.8
20190615175940 96 175 5.0 0.0 0.00 0.00 0.00 11 1011.7
20190615175440 96 175 5.0 0.0 0.00 0.00 0.00 11 1011.7
20190615174940 96 175 5.0 0.0 0.00 0.00 0.00 11 1011.7
20190615174440 96 175 5.0 0.0 0.00 0.00 0.00 11 1011.7
20190615173943 96 175 5.0 0.0 0.00 0.00 0.00 11 1011.7
20190615173440 95 175 5.0 8.0 0.00 0.00 0.00 11 1011.7
20190615172940 95 229 2.0 5.0 0.00 0.00 0.00 11 1011.7
20190615172440 94 153 3.0 8.0 0.00 0.00 0.00 11 1011.7
20190615171940 95 192 2.0 8.0 0.00 0.00 0.00 11 1011.8
20190615171443 94 182 3.0 9.0 0.00 0.00 0.00 12 1011.8
20190615170941 94 179 5.0 11.0 0.00 0.00 0.00 12 1011.8
20190615170441 94 200 1.0 5.0 0.00 0.00 0.00 12 1011.9
20190615165940 93 188 4.0 5.0 0.00 0.00 0.00 12 1011.9
20190615165440 93 163 3.0 5.0 0.00 0.00 0.00 12 1011.9
20190615164943 92 159 1.0 8.0 0.00 0.00 0.00 12 1011.9
20190615164441 92 175 2.0 10.0 0.00 0.00 0.00 12 1011.9
20190615163941 92 126 4.0 7.0 0.00 0.00 0.00 13 1011.9
20190615163443 92 145 2.0 8.0 0.00 0.00 0.00 13 1011.9
20190615162940 91 150 5.0 8.0 0.00 0.00 0.00 13 1011.9
20190615162440 91 136 5.0 12.0 0.00 0.00 0.00 13 1011.9
20190615161941 91 137 3.0 8.0 0.00 0.00 0.00 13 1012.0
20190615161441 91 137 2.0 7.0 0.00 0.00 0.00 13 1012.0
20190615160940 90 171 3.0 7.0 0.00 0.00 0.00 13 1012.0
20190615160441 90 123 7.0 9.0 0.00 0.00 0.00 13 1012.0
20190615155940 90 182 1.0 7.0 0.00 0.00 0.00 14 1012.1
20190615155440 89 180 3.0 7.0 0.00 0.00 0.00 13 1012.1
20190615154940 89 133 1.0 8.0 0.00 0.00 0.00 13 1012.2
20190615154440 89 200 3.0 7.0 0.00 0.00 0.00 14 1012.2
20190615153940 89 177 2.0 7.0 0.00 0.00 0.00 14 1012.2
20190615153440 89 150 3.0 7.0 0.00 0.00 0.00 14 1012.2
20190615152941 88 155 3.0 7.0 0.00 0.00 0.00 14 1012.2
20190615152440 88 148 2.0 7.0 0.00 0.00 0.00 14 1012.2
20190615151943 88 150 3.0 9.0 0.00 0.00 0.00 15 1012.1
20190615151440 87 124 2.0 7.0 0.00 0.00 0.00 15 1012.1
20190615150940 87 146 2.0 8.0 0.00 0.00 0.00 15 1012.0
20190615150440 87 165 5.0 7.0 0.00 0.00 0.00 15 1012.0
20190615145940 86 127 2.0 8.0 0.00 0.00 0.00 15 1012.0
20190615145441 86 178 5.0 7.0 0.00 0.00 0.00 16 1012.0
20190615144940 86 139 6.0 8.0 0.00 0.00 0.00 16 1011.9
20190615144440 86 154 4.0 6.0 0.00 0.00 0.00 17 1011.8
20190615143940 85 137 4.0 9.0 0.00 0.00 0.00 17 1011.8
20190615143441 85 139 2.0 11.0 0.00 0.00 0.00 17 1011.7
20190615142940 85 146 2.0 11.0 0.00 0.00 0.00 17 1011.6
20190615142441 85 150 4.0 6.0 0.00 0.00 0.00 17 1011.6
20190615141940 84 151 1.0 7.0 0.00 0.00 0.00 18 1011.6
20190615141440 84 153 3.0 8.0 0.00 0.00 0.00 18 1011.5
20190615140940 83 132 1.0 5.0 0.00 0.00 0.00 19 1011.5
20190615140440 83 144 2.0 5.0 0.00 0.00 0.00 20 1011.4
20190615135940 82 135 1.0 5.0 0.00 0.00 0.00 20 1011.4
20190615135440 82 147 2.0 8.0 0.00 0.00 0.00 20 1011.4
20190615134940 81 149 2.0 6.0 0.00 0.00 0.00 21 1011.3
20190615134441 81 126 3.0 6.0 0.00 0.00 0.00 22 1011.3
20190615133940 80 142 2.0 5.0 0.00 0.00 0.00 22 1011.2
20190615133440 80 144 3.0 5.0 0.00 0.00 0.00 23 1011.1
20190615132940 79 126 5.0 5.0 0.00 0.00 0.00 23 1011.0
20190615132441 79 147 2.0 7.0 0.00 0.00 0.00 23 1010.9
20190615131940 78 130 2.0 3.0 0.00 0.00 0.00 23 1010.8
20190615131440 78 136 2.0 4.0 0.00 0.00 0.00 23 1010.8
20190615130940 78 143 2.0 5.0 0.00 0.00 0.00 23 1010.8
20190615130440 78 144 3.0 5.0 0.00 0.00 0.00 23 1010.7
20190615125940 78 125 3.0 5.0 0.00 0.00 0.00 23 1010.7
20190615125444 78 135 3.0 6.0 0.00 0.00 0.00 23 1010.7
20190615124941 78 121 3.0 6.0 0.00 0.00 0.00 23 1010.7
20190615124440 78 132 3.0 7.0 0.00 0.00 0.00 23 1010.5
20190615123941 78 134 5.0 8.0 0.00 0.00 0.00 23 1010.6
20190615123440 78 123 4.0 7.0 0.00 0.00 0.00 23 1010.5
20190615122941 78 128 4.0 5.0 0.00 0.00 0.00 24 1010.5
20190615122441 78 133 3.0 8.0 0.00 0.00 0.00 24 1010.4
20190615121940 78 126 2.0 5.0 0.00 0.00 0.00 24 1010.4
20190615121440 78 123 3.0 5.0 0.00 0.00 0.00 24 1010.3
20190615120944 78 120 3.0 6.0 0.00 0.00 0.00 25 1010.2
20190615120441 78 111 2.0 7.0 0.00 0.00 0.00 25 1010.2
20190615115940 78 130 4.0 5.0 0.00 0.00 0.00 25 1010.1
20190615115440 78 131 5.0 5.0 0.00 0.00 0.00 26 1010.2
20190615114940 78 140 1.0 4.0 0.00 0.00 0.00 26 1010.1
20190615114440 78 119 1.0 5.0 0.00 0.00 0.00 26 1010.0
20190615113940 78 122 4.0 8.0 0.00 0.00 0.00 26 1009.9
20190615113441 78 127 4.0 6.0 0.00 0.00 0.00 26 1009.9
20190615112940 78 111 3.0 9.0 0.00 0.00 0.00 26 1009.9
20190615112440 78 141 3.0 6.0 0.00 0.00 0.00 26 1009.9
20190615111941 78 126 4.0 7.0 0.00 0.00 0.00 26 1009.9
20190615111440 78 128 3.0 7.0 0.00 0.00 0.00 26 1009.9
20190615110941 78 133 5.0 8.0 0.00 0.00 0.00 26 1009.9
20190615110440 78 115 4.0 8.0 0.00 0.00 0.00 26 1009.8
20190615105940 78 134 2.0 7.0 0.00 0.00 0.00 26 1009.8
20190615105443 78 137 3.0 5.0 0.00 0.00 0.00 26 1009.8
20190615104940 78 129 3.0 6.0 0.00 0.00 0.00 26 1009.7
20190615104440 78 128 6.0 6.0 0.00 0.00 0.00 26 1009.8
20190615103940 78 130 4.0 7.0 0.00 0.00 0.00 26 1009.8
20190615103440 78 127 2.0 7.0 0.00 0.00 0.00 25 1009.8
20190615102940 78 130 3.0 8.0 0.00 0.00 0.00 25 1009.8
20190615102440 78 136 3.0 7.0 0.00 0.00 0.00 24 1009.8
20190615101940 78 134 3.0 7.0 0.00 0.00 0.00 24 1009.8
20190615101440 78 121 5.0 8.0 0.00 0.00 0.00 23 1009.7
20190615100940 79 135 4.0 8.0 0.00 0.00 0.00 23 1009.8
20190615100441 79 124 4.0 6.0 0.00 0.00 0.00 23 1009.7
20190615095940 79 132 2.0 5.0 0.00 0.00 0.00 22 1009.7
20190615095441 79 134 3.0 7.0 0.00 0.00 0.00 22 1009.7
20190615094940 79 138 2.0 4.0 0.00 0.00 0.00 22 1009.7
20190615094440 79 136 3.0 4.0 0.00 0.00 0.00 21 1009.7
20190615093940 80 130 1.0 3.0 0.00 0.00 0.00 20 1009.7
20190615093441 80 128 1.0 5.0 0.00 0.00 0.00 20 1009.7
20190615092941 80 135 1.0 7.0 0.00 0.00 0.00 20 1009.7
20190615092441 80 122 3.0 6.0 0.00 0.00 0.00 20 1009.7
20190615091940 80 119 7.0 8.0 0.00 0.00 0.00 19 1009.7
20190615091441 79 128 2.0 7.0 0.00 0.00 0.00 19 1009.7
20190615090940 79 131 2.0 6.0 0.00 0.00 0.00 19 1009.7
20190615090440 80 127 3.0 7.0 0.00 0.00 0.00 19 1009.7
20190615085940 80 113 2.0 6.0 0.00 0.00 0.00 18 1009.7
20190615085440 80 138 3.0 5.0 0.00 0.00 0.00 18 1009.6
20190615084940 80 128 3.0 8.0 0.00 0.00 0.00 18 1009.5
20190615084440 80 148 2.0 4.0 0.00 0.00 0.00 17 1009.5
20190615083941 80 140 2.0 5.0 0.00 0.00 0.00 17 1009.5
20190615083440 81 161 4.0 5.0 0.00 0.00 0.00 16 1009.5
20190615082941 81 144 2.0 7.0 0.00 0.00 0.00 16 1009.4
20190615082440 81 116 4.0 8.0 0.00 0.00 0.00 16 1009.4
20190615081940 80 118 7.0 9.0 0.00 0.00 0.00 16 1009.4
20190615081440 80 124 4.0 8.0 0.00 0.00 0.00 16 1009.4
20190615080940 80 126 3.0 8.0 0.00 0.00 0.00 16 1009.4
20190615080440 80 124 4.0 8.0 0.00 0.00 0.00 16 1009.3
20190615075940 80 124 3.0 7.0 0.00 0.00 0.00 16 1009.4
20190615075443 80 96 6.0 6.0 0.00 0.00 0.00 15 1009.3
20190615074940 80 134 3.0 4.0 0.00 0.00 0.00 15 1009.3
20190615074440 80 132 2.0 4.0 0.00 0.00 0.00 15 1009.3
20190615073943 80 123 1.0 4.0 0.00 0.00 0.00 15 1009.3
20190615073441 81 166 1.0 3.0 0.00 0.00 0.00 15 1009.3
20190615072940 81 162 1.0 3.0 0.00 0.00 0.00 16 1009.1
20190615072440 81 151 2.0 4.0 0.00 0.00 0.00 16 1009.2
20190615071941 80 133 2.0 5.0 0.00 0.00 0.00 16 1009.2
20190615071441 80 126 3.0 8.0 0.00 0.00 0.00 16 1009.2
20190615070940 80 115 4.0 7.0 0.00 0.00 0.00 16 1009.2
20190615070440 80 130 5.0 8.0 0.00 0.00 0.00 17 1009.2
20190615065940 79 144 1.0 3.0 0.00 0.00 0.00 18 1009.2
20190615065440 79 140 2.0 3.0 0.00 0.00 0.00 18 1009.2
20190615064941 79 140 3.0 3.0 0.00 0.00 0.00 18 1009.2